Theta_e
303 303 304 305 305 305 304 304 304 305 305 305 306 306 306 307 308 308 304 305 300 293 295 298 300 294 293 291 285 290 291 291 289 284 283 282 280 285 290 292 290 287 285 284 285 282 279 298 297 289 292 296 293 291
303 303 303 304 305 304 304 304 304 304 304 305 305 305 306 307 307 308 301 304 302 296 295 300 300 301 300 298 293 292 290 293 293 286 286 285 286 288 287 284 295 288 291 287 288 288 297 299 297 300 297 293 292 290
302 302 302 303 304 304 304 304 304 304 304 305 305 305 306 307 307 306 303 302 299 293 293 294 295 302 303 301 299 289 294 297 295 295 287 288 281 285 284 284 288 294 298 290 291 295 297 299 300 299 296 293 294 293
301 302 301 302 303 304 304 304 303 304 304 304 304 305 305 307 308 307 302 303 301 296 287 292 303 301 305 302 300 298 296 297 294 292 286 285 283 287 284 286 288 291 296 292 292 295 298 298 298 296 296 295 292 292
300 301 301 302 302 303 304 304 304 304 304 304 305 305 306 307 307 305 305 303 303 296 290 290 296 299 301 302 301 300 298 295 293 290 287 282 286 287 287 288 285 292 291 287 289 294 292 291 294 296 292 291 292 292
299 301 301 301 302 303 303 304 304 304 304 304 304 305 306 307 306 302 296 302 304 303 293 286 296 299 299 301 300 298 298 294 293 291 290 289 289 290 287 284 295 296 298 296 292 295 293 295 294 294 292 292 293 292
299 300 301 301 301 302 303 304 304 304 304 304 304 305 306 306 302 298 295 301 304 303 294 288 291 299 300 297 297 296 296 292 293 291 290 289 287 293 290 284 294 298 298 297 295 293 291 293 290 293 293 293 293 292
299 300 300 301 301 302 303 304 304 304 304 304 304 305 306 306 304 299 303 305 304 298 295 286 285 294 300 290 292 295 292 293 292 291 291 288 292 289 287 293 298 298 298 295 293 294 292 292 292 292 292 292 290 289
299 300 300 300 301 301 303 304 304 304 304 304 305 306 303 300 296 299 306 304 301 297 288 287 282 284 300 294 293 293 293 287 292 288 285 290 290 286 290 295 297 296 294 292 293 293 292 291 291 290 290 290 288 287
300 300 300 300 301 301 302 303 304 304 304 305 302 297 292 297 306 303 297 292 292 292 291 287 287 285 292 293 291 290 291 288 284 288 289 288 285 294 298 299 298 296 295 293 290 288 289 289 289 289 289 290 290 288
299 300 300 300 301 301 302 303 304 305 304 300 293 291 298 303 297 293 288 287 288 285 287 287 286 285 294 289 288 291 287 288 284 287 287 287 285 293 297 297 297 295 294 293 292 291 290 290 290 290 290 291 291 290
299 300 300 301 301 302 302 303 304 301 297 298 297 299 297 293 291 287 285 287 286 284 287 286 285 291 291 294 290 290 287 288 283 292 288 285 289 296 296 295 294 292 293 293 293 292 292 292 292 291 291 290 291 292
300 300 300 300 301 302 302 304 304 303 302 299 294 290 289 287 283 282 280 285 283 288 292 289 288 289 288 289 286 288 285 284 294 287 286 287 292 296 295 293 292 293 294 294 292 292 292 292 293 292 291 292 292 292
300 300 300 301 301 302 302 303 303 302 298 291 287 282 284 283 284 284 288 289 294 292 292 290 288 287 289 285 287 285 287 290 286 284 285 290 293 293 292 293 293 292 293 291 291 291 291 291 292 294 293 293 292 291
300 300 300 300 301 302 303 304 303 301 295 288 288 283 285 290 294 293 296 293 295 295 293 291 290 290 287 286 288 287 287 286 286 284 287 290 291 292 291 292 290 290 289 289 289 290 290 291 291 292 292 292 293 293
300 300 299 301 302 303 303 303 301 298 294 290 289 286 290 292 289 292 295 291 294 293 295 292 289 286 286 287 287 287 286 283 285 286 289 291 291 291 290 290 290 290 289 288 289 290 290 290 289 290 292 291 292 292
299 296 302 302 302 303 302 298 296 292 290 288 287 289 289 291 291 292 295 292 296 294 288 290 287 287 291 287 287 288 286 287 289 289 292 291 290 288 289 291 291 291 290 288 289 289 289 291 290 290 289 290 289 291
296 299 302 302 302 300 298 297 293 291 287 288 286 292 296 294 293 295 296 295 293 291 293 289 293 288 287 286 286 289 289 290 292 291 292 290 288 288 290 288 290 289 288 289 289 288 288 289 288 287 288 289 288 289
298 300 302 303 300 296 292 293 293 287 288 289 291 295 296 296 298 297 295 295 295 296 293 292 291 289 287 293 290 290 290 291 289 289 289 289 289 290 290 290 289 287 287 287 287 287 287 287 287 287 287 288 286 287
300 301 302 302 302 294 291 291 295 290 288 291 295 293 294 292 295 294 294 293 293 292 291 292 291 291 294 296 293 292 292 290 289 287 285 286 288 289 289 288 287 287 286 287 288 288 287 287 288 287 287 287 286 285
299 301 301 300 297 295 293 292 289 290 292 291 294 294 291 294 292 291 291 293 289 289 293 295 295 297 299 297 296 295 292 291 288 289 287 286 287 288 288 288 289 288 287 286 286 286 286 285 286 286 286 286 287 287
299 302 297 298 294 294 291 292 290 291 289 289 290 293 289 288 288 290 293 290 288 293 295 297 297 296 291 292 292 293 292 291 290 290 290 290 289 289 289 289 289 287 287 286 286 286 286 286 286 286 285 285 286 286
300 299 294 295 290 288 287 294 289 289 286 290 291 290 289 288 291 295 289 290 291 299 299 298 298 295 293 292 293 292 292 290 288 288 290 290 289 291 291 290 289 287 286 286 287 286 286 286 286 285 284 285 284 284
300 294 291 290 289 286 291 288 291 291 290 288 286 288 288 290 292 290 288 291 295 299 298 298 297 292 290 290 290 290 290 291 290 291 292 291 289 288 288 288 287 287 286 285 285 285 284 284 285 283 282 282 282 281
289 286 289 284 291 289 289 288 287 286 285 288 289 287 289 290 287 287 288 291 295 296 297 296 293 292 289 289 289 289 291 293 291 289 290 291 289 288 286 286 286 285 285 284 283 283 282 282 282 282 282 281 279 280
283 288 285 288 288 288 288 286 287 288 288 289 290 292 292 288 288 286 290 294 295 295 296 295 292 290 290 290 290 290 291 294 292 288 287 290 290 287 285 283 283 282 283 282 282 281 281 282 281 281 281 281 281 279
280 284 290 293 291 291 290 292 294 291 289 289 289 290 289 285 286 289 294 298 297 298 298 297 295 292 291 291 293 293 293 293 291 289 289 291 290 289 288 284 283 283 283 283 282 282 281 281 280 279 279 279 279 279
288 292 288 288 288 291 289 290 289 288 289 292 293 288 286 287 286 291 293 299 300 300 300 298 296 295 293 293 293 293 292 292 292 291 290 289 288 288 288 287 285 284 283 282 282 282 281 280 280 279 279 278 277 278
288 292 294 290 291 290 288 288 288 290 292 292 290 288 286 289 291 293 296 298 300 299 294 294 293 295 293 293 293 293 293 292 289 286 285 284 284 285 286 285 284 282 281 280 281 282 281 280 279 278 278 278 278 277
288 293 292 291 287 286 288 290 290 291 292 293 291 289 289 290 293 296 295 294 294 293 294 294 294 293 292 292 292 292 293 292 292 290 286 284 284 284 284 284 283 282 282 281 280 280 279 279 278 278 277 276 276 275
291 292 292 289 286 288 290 291 292 292 291 290 292 289 288 290 293 295 293 293 293 294 293 293 292 294 293 291 291 289 288 290 291 290 289 287 285 285 284 284 283 282 281 279 278 277 276 276 276 275 275 275 275 275
292 291 289 285 285 289 291 289 288 288 289 288 288 290 290 290 287 292 294 292 292 293 290 292 293 290 291 289 288 287 286 286 287 287 287 285 284 284 284 284 283 282 280 279 277 276 276 275 274 274 274 273 273 273
289 290 289 287 285 286 288 288 288 286 286 286 286 288 289 288 286 290 295 294 292 291 290 290 288 287 287 286 283 281 281 280 279 280 280 280 279 280 282 284 283 282 280 278 277 276 274 273 269 267 266 264 263 264
Wind_Speed
19 19 20 19 18 16 16 17 15 14 14 13 13 12 12 12 13 4 3 2 3 2 5 2 2 1 1 2 3 4 3 4 3 2 3 2 1 3 3 3 5 5 6 3 3 3 7 4 3 2 2 4 3 3
18 17 17 18 18 16 15 16 16 15 13 13 13 13 13 13 11 10 2 1 1 2 4 2 5 8 7 4 4 1 4 2 1 4 2 2 2 3 0 1 2 4 3 3 3 2 2 4 4 3 4 3 4 4
19 19 19 19 19 15 14 14 14 15 14 13 12 12 13 13 9 9 1 1 3 2 4 3 5 4 5 6 4 5 1 2 4 1 3 1 1 1 2 2 2 2 4 2 1 2 1 5 1 6 4 4 5 4
20 19 19 20 19 18 15 13 14 14 14 13 11 12 14 14 6 7 2 2 2 2 1 5 5 3 3 7 5 5 7 4 4 3 3 1 2 3 3 4 2 5 5 4 2 2 4 2 4 3 5 6 6 7
20 19 18 18 20 18 17 16 14 14 14 13 10 12 13 14 8 2 2 3 2 2 1 4 8 5 6 8 10 9 8 5 2 2 2 3 3 1 2 2 3 1 4 4 3 4 5 1 4 5 8 6 6 8
20 19 18 19 19 18 18 16 15 12 13 12 10 11 13 12 4 1 1 2 3 3 1 3 4 2 5 9 9 7 6 4 2 2 2 3 4 1 2 3 2 2 2 5 5 4 3 8 7 7 9 6 8 10
19 19 18 19 19 18 18 20 15 12 12 11 10 11 12 6 1 2 1 1 7 3 1 3 2 4 8 6 3 3 3 2 2 1 2 2 3 3 3 3 5 7 6 4 3 6 7 7 5 5 7 7 9 8
18 18 16 18 19 18 17 19 14 10 9 10 11 11 13 1 6 1 2 7 3 2 1 0 4 3 2 2 3 1 2 1 1 1 2 3 2 3 4 6 1 6 4 7 7 8 9 7 7 8 7 7 10 12
17 16 17 17 18 18 16 18 14 8 9 10 11 5 1 1 2 1 12 9 2 2 1 1 3 3 2 3 2 2 2 2 2 2 3 3 2 4 7 6 2 4 2 6 7 12 9 11 8 6 6 7 9 13
17 15 17 17 17 16 16 17 15 9 10 11 3 1 1 3 14 7 4 2 3 2 1 2 2 3 4 2 2 2 2 2 3 5 2 3 4 2 8 6 6 1 6 7 8 6 6 7 6 5 5 4 5 8
16 16 16 17 15 16 16 16 13 10 6 1 2 1 2 4 3 2 2 2 2 2 2 4 4 2 4 3 2 2 2 1 3 2 3 3 3 4 7 8 5 5 8 8 10 7 7 7 6 5 3 4 4 3
16 17 16 16 15 16 13 14 11 2 1 1 3 2 2 2 2 1 2 2 4 4 4 4 3 3 2 2 2 3 2 3 4 5 3 2 3 10 7 7 6 8 9 13 10 9 7 7 6 5 4 2 2 2
15 15 15 15 16 14 12 12 5 8 4 1 2 1 1 1 3 4 4 3 2 3 3 2 3 3 3 4 2 1 3 4 3 4 3 2 6 6 6 8 7 7 8 12 7 5 7 5 5 5 4 3 3 3
14 15 14 14 13 13 11 11 7 3 1 1 1 1 2 3 4 4 2 1 0 3 5 5 3 2 1 2 1 4 5 3 3 2 2 4 4 8 8 5 8 7 10 8 6 6 6 4 4 5 3 2 2 4
15 16 16 16 12 10 7 2 8 1 0 1 1 3 6 5 1 3 3 2 2 5 5 3 3 1 2 3 4 3 4 3 1 2 4 1 7 10 8 7 8 8 6 6 4 5 6 5 4 5 3 4 2 5
13 15 3 8 7 3 0 1 1 1 1 2 3 3 4 1 2 3 3 2 2 3 2 1 3 3 4 3 5 4 2 2 2 3 4 8 10 9 7 7 7 6 6 6 6 4 4 5 5 4 4 5 5 6
10 3 4 4 0 4 4 1 1 1 2 2 3 4 5 3 4 1 3 2 3 4 2 2 3 4 3 3 2 2 2 3 7 5 6 9 10 7 7 7 7 6 5 5 5 6 5 4 6 6 5 4 5 5
4 3 5 2 3 3 1 2 1 1 4 4 3 3 5 2 2 3 1 2 3 2 2 2 2 2 2 2 1 1 4 5 5 6 5 6 6 7 7 7 6 6 6 6 6 5 6 6 5 4 5 3 6 5
4 2 5 7 2 1 1 1 0 2 5 3 4 4 3 2 1 3 3 2 2 1 0 2 3 1 0 2 6 5 5 7 6 4 4 6 7 7 6 6 6 5 6 5 5 4 3 5 3 4 4 4 4 4
9 7 5 6 1 1 2 1 2 3 4 3 3 1 2 2 3 3 2 1 1 0 2 1 3 2 3 1 3 6 5 6 7 7 4 3 4 6 5 4 4 5 5 5 4 6 6 5 4 4 4 5 5 5
4 3 5 1 1 1 3 2 4 4 3 1 2 2 1 2 3 1 1 1 2 1 2 2 3 4 8 3 7 8 7 6 5 6 5 4 3 5 4 3 6 4 5 3 4 4 6 4 3 4 5 6 4 5
2 3 2 1 2 3 3 4 3 4 1 3 3 3 3 2 2 1 1 1 1 2 2 3 3 4 6 7 6 8 8 7 6 5 6 7 4 3 4 3 6 5 5 4 4 4 3 3 4 4 5 5 5 6
6 2 1 2 3 1 6 1 1 3 1 2 3 2 2 1 0 1 1 2 2 1 3 2 4 0 8 5 11 8 8 9 5 5 7 7 5 7 8 6 5 6 6 4 4 4 4 5 6 5 5 6 5 6
4 2 3 3 4 4 2 2 3 2 2 2 1 2 2 2 1 1 1 2 2 3 3 4 1 3 5 6 4 4 4 6 7 8 9 9 9 6 8 6 5 5 4 4 5 5 5 5 6 5 5 6 6 5
1 4 3 4 3 3 4 3 2 0 3 4 4 2 2 2 1 2 1 1 3 3 4 2 3 4 4 2 3 4 4 9 8 7 4 9 10 8 7 7 7 5 4 6 5 5 5 5 6 5 7 7 7 7
4 4 5 4 3 4 3 3 4 5 3 2 1 2 2 2 1 1 1 2 2 2 1 1 3 3 3 3 5 6 6 9 10 8 4 5 9 9 7 7 6 4 3 4 5 6 6 6 7 9 9 10 11 9
3 4 4 4 3 2 2 2 2 1 1 3 3 3 2 2 1 1 3 1 2 3 2 3 7 8 7 7 8 7 6 7 10 7 5 8 8 6 8 8 7 4 3 6 6 6 6 7 7 7 7 8 8 7
5 3 4 3 2 1 0 1 3 3 2 4 2 2 3 1 1 1 2 1 3 3 5 2 9 8 9 9 9 10 10 10 11 10 8 7 5 5 6 5 6 11 5 5 6 7 7 8 7 7 8 7 7 8
3 2 2 3 3 4 2 2 1 1 2 2 1 2 2 0 1 2 3 3 3 3 1 9 5 8 7 5 5 7 9 9 12 13 12 6 4 2 3 5 5 6 6 7 9 9 12 9 8 8 8 7 6 6
4 3 3 2 2 2 2 1 1 2 2 1 1 2 2 2 2 3 3 3 4 2 6 9 8 8 9 9 7 7 4 4 6 10 9 8 5 4 6 7 8 6 6 7 8 8 9 8 7 8 8 7 6 5
2 3 3 3 2 1 2 2 1 1 2 3 1 2 1 1 3 3 3 3 3 3 6 7 6 8 10 9 9 10 7 5 12 13 11 8 7 8 8 8 7 6 7 8 7 7 7 7 7 7 8 9 8 7
3 3 4 3 2 2 1 1 0 0 1 1 1 1 2 1 1 2 2 4 4 4 1 5 8 5 7 7 7 7 10 7 6 7 10 7 6 6 7 8 8 8 9 8 7 7 8 8 6 6 7 8 7 7
1 3 3 3 2 3 3 3 3 2 1 1 1 1 0 2 3 3 3 2 3 3 6 7 8 8 10 11 11 9 9 8 9 11 13 11 9 8 7 7 8 9 10 8 7 8 9 10 7 7 6 5 4 5
Wind_Direction
329 327 328 332 323 321 323 318 320 316 318 314 310 317 324 324 322 301 273 8 140 223 280 281 11 163 22 93 139 274 35 354 24 75 122 249 324 280 82 174 181 177 172 194 186 214 254 343 22 90 282 300 319 340
328 328 325 322 318 315 315 316 315 315 317 314 313 317 319 324 326 334 241 350 55 183 251 285 250 233 190 219 152 77 155 10 53 88 52 343 300 334 322 302 117 199 188 172 217 242 92 61 87 246 255 267 339 9
322 323 325 323 321 313 310 311 310 308 311 314 317 315 318 320 319 324 252 174 67 12 307 343 258 255 163 186 170 122 34 25 55 120 140 153 269 36 278 243 21 347 131 198 210 81 181 156 258 276 30 44 18 1
322 320 322 322 319 321 314 307 307 308 310 309 312 315 312 315 305 315 163 194 102 83 37 282 349 24 149 149 113 114 124 65 98 55 83 111 229 176 253 236 222 213 165 186 220 132 157 187 212 64 50 54 19 26
320 320 321 319 321 320 318 310 297 301 304 305 305 317 311 319 310 286 216 193 156 148 276 283 309 233 165 146 108 105 104 95 82 79 90 224 241 293 296 317 255 228 178 141 179 181 188 267 102 79 75 41 37 21
315 319 321 321 321 319 322 324 303 292 296 304 307 312 313 313 323 318 243 188 168 133 226 305 304 330 96 113 111 99 91 76 78 125 183 263 250 156 273 263 175 124 222 170 191 198 142 101 79 75 71 43 37 21
313 319 319 322 322 322 320 318 311 295 294 309 310 311 308 297 158 237 256 144 158 126 158 298 339 91 98 85 67 66 49 98 119 127 232 242 289 130 254 245 196 182 205 218 225 112 67 55 80 79 69 45 30 14
311 316 314 321 325 324 320 323 317 297 297 308 305 301 300 185 109 136 359 104 104 118 72 248 274 108 134 111 101 82 101 108 146 181 225 231 232 186 238 245 167 198 161 84 85 82 108 125 96 65 56 34 20 10
314 315 316 323 322 326 329 331 325 308 304 305 310 297 134 314 129 117 102 77 59 74 201 223 182 188 89 87 86 107 137 179 161 209 239 197 178 223 222 160 198 43 25 126 94 100 93 84 86 68 51 34 25 3
320 316 321 321 321 324 323 329 336 317 305 309 292 246 39 314 126 107 33 50 22 9 353 256 317 214 123 137 137 139 189 212 204 212 213 223 253 227 125 157 222 182 124 109 102 94 95 97 97 80 59 49 53 17
316 317 317 319 321 321 320 326 334 324 321 68 38 46 304 343 49 29 114 191 154 232 209 231 199 159 356 119 150 218 166 216 243 189 207 204 249 171 164 158 194 119 92 84 103 116 127 128 129 112 76 54 34 18
309 314 314 318 324 322 318 327 326 348 77 2 112 64 20 9 243 208 178 199 192 233 168 176 206 145 67 115 131 175 236 185 252 150 215 223 355 105 165 119 99 91 88 120 124 128 125 125 143 139 125 103 321 70
308 313 315 316 319 320 315 323 325 132 137 25 59 85 183 182 209 224 198 203 200 185 149 127 72 95 46 33 82 200 232 235 162 197 185 106 203 222 111 109 91 86 100 103 107 125 121 139 139 147 152 177 260 100
310 312 307 305 306 300 302 309 166 155 2 57 236 204 226 186 246 207 251 132 87 112 102 93 83 99 102 99 158 235 230 271 230 178 113 175 179 98 108 103 99 92 94 103 102 83 125 110 93 131 165 232 276 149
311 310 303 298 285 277 295 226 160 14 345 273 264 247 224 246 349 256 233 124 90 122 113 104 99 138 151 216 197 240 230 249 79 121 160 135 115 110 101 98 94 93 95 84 84 86 82 80 70 104 179 334 16 137
316 312 283 262 276 305 272 175 146 323 285 261 238 281 267 328 68 314 231 139 118 127 104 101 137 202 211 212 216 213 235 76 170 159 128 121 105 99 100 101 108 114 109 96 73 75 70 69 40 62 147 358 13 116
310 243 324 1 233 136 82 44 98 250 283 250 252 239 245 254 280 139 266 152 129 137 196 199 226 221 175 212 233 175 204 163 122 115 121 123 119 121 106 96 95 91 99 101 82 63 48 51 43 49 80 331 28 106
244 279 331 191 130 119 36 8 279 268 265 255 264 314 322 161 216 252 146 111 109 192 217 224 292 251 272 257 126 69 88 91 101 117 114 116 109 111 109 111 100 93 90 107 85 66 47 49 40 25 45 16 18 49
227 339 321 165 144 71 181 180 193 263 254 227 235 219 239 263 194 115 103 76 89 134 338 250 245 189 152 250 121 111 111 117 120 104 92 103 115 118 133 138 119 95 92 99 84 71 61 58 59 31 32 32 23 22
237 273 279 163 263 251 228 206 188 270 278 261 299 286 194 155 135 93 93 73 56 40 268 287 22 141 204 178 126 117 116 117 113 107 88 88 106 111 129 126 147 124 96 83 67 59 47 41 32 34 34 31 32 30
168 129 123 135 74 299 274 189 217 230 280 299 291 4 347 74 85 75 31 24 31 288 37 337 275 240 221 209 130 124 127 126 133 134 150 143 176 133 103 99 101 97 102 106 92 54 53 59 61 37 42 25 19 37
96 163 123 70 220 232 234 248 225 276 316 259 347 2 53 54 62 15 351 357 291 289 100 233 302 326 90 122 132 143 147 124 126 109 85 96 82 77 93 80 85 73 67 82 90 86 55 40 80 51 44 24 32 37
164 179 146 182 260 267 257 318 220 241 249 345 23 333 86 63 75 312 297 251 235 7 169 263 299 247 108 99 109 108 122 126 122 110 105 97 102 93 85 77 84 92 77 36 62 72 58 34 58 57 34 40 43 34
158 192 216 213 209 261 219 238 222 239 140 150 191 209 126 160 185 270 296 290 123 112 253 276 309 88 59 64 83 115 122 108 101 107 123 115 103 88 90 84 76 73 92 88 63 58 48 42 56 49 41 49 48 41
128 250 169 258 233 236 247 189 208 169 241 197 184 179 204 154 188 221 234 243 126 223 238 258 128 106 114 103 108 85 104 120 116 88 34 114 111 94 80 73 65 56 59 68 48 60 45 45 54 60 44 45 53 41
216 234 176 216 223 201 262 190 214 205 205 144 192 173 160 185 238 157 295 91 112 229 326 313 156 110 77 123 110 100 99 110 99 86 40 135 124 120 114 106 98 36 41 85 79 70 58 50 63 62 50 48 44 42
240 257 219 229 249 310 339 324 355 10 158 196 194 168 160 185 158 193 292 115 146 254 286 267 118 111 117 100 94 96 95 92 94 108 106 93 93 107 124 127 124 152 112 83 81 85 79 67 72 62 60 59 48 41
240 276 207 255 217 212 193 112 6 26 20 346 349 89 166 148 157 291 272 259 254 347 359 21 112 119 116 113 116 113 105 108 107 103 89 72 67 91 98 92 96 99 95 85 92 82 76 79 79 66 58 59 62 39
249 269 91 277 96 65 46 358 29 33 333 319 22 115 146 354 329 320 330 358 305 341 331 115 94 110 98 84 96 120 129 132 130 122 121 125 113 68 104 106 91 84 81 78 65 81 82 85 86 74 62 56 53 54
243 193 164 122 87 115 116 343 10 1 344 22 64 76 71 4 322 299 348 347 300 158 139 129 136 127 121 114 101 71 47 118 145 139 136 134 138 125 102 97 96 86 80 85 83 74 64 72 68 63 59 51 44 41
169 109 88 73 87 78 99 103 358 308 0 6 101 86 79 314 327 301 339 320 329 28 123 131 121 130 126 122 116 105 82 44 95 101 106 114 118 115 115 115 113 105 95 89 87 84 82 74 72 70 62 54 45 38
27 51 122 114 129 132 178 197 2 32 97 49 53 123 172 100 334 297 312 351 10 26 304 119 124 107 98 92 82 80 100 103 97 109 114 114 112 115 119 115 111 106 102 99 95 92 84 81 78 75 71 64 51 36
76 84 90 108 128 186 190 202 171 149 123 135 182 233 162 132 198 253 291 213 173 119 104 104 101 97 101 105 108 99 89 88 84 84 82 83 89 87 94 121 114 117 117 116 113 109 102 99 91 88 83 72 48 31